Photometre #851[NE_1.6_Dp] Glasgow_MO AOT

File : 20220824_851.hum

24/08/2022,06:12:28,TEMP=14.4,BA=5.64,STAT.A,ExtBa=12.10
24/08/2022,06:17:03,TEMP=14.6,BA=5.64,STAT.A,ExtBa=12.10
24/08/2022,06:22:24,TEMP=14.6,BA=5.64,STAT.A,ExtBa=12.10
24/08/2022,06:28:44,TEMP=14.7,BA=5.64,STAT.A,ExtBa=12.10
24/08/2022,06:36:19,TEMP=14.8,BA=5.64,STAT.A,ExtBa=12.10
24/08/2022,06:45:37,TEMP=14.8,BA=5.64,STAT.A,ExtBa=12.10
24/08/2022,06:57:19,TEMP=14.9,BA=5.64,STAT.B,ExtBa=12.10
24/08/2022,07:02:53,TEMP=15.1,BA=5.64,STAT.A,ExtBa=12.10
24/08/2022,07:09:21,TEMP=15.2,BA=5.64,STAT.A,ExtBa=12.10
24/08/2022,07:16:05,TEMP=15.0,BA=5.64,STAT.A,ExtBa=12.10
24/08/2022,07:24:00,TEMP=14.7,BA=5.64,STAT.A,ExtBa=12.10
24/08/2022,07:33:05,TEMP=14.4,BA=5.64,STAT.C,ExtBa=12.10
24/08/2022,07:43:36,TEMP=14.2,BA=5.64,STAT.A,ExtBa=12.10
24/08/2022,07:54:24,TEMP=14.3,BA=5.64,STAT.D,ExtBa=12.10
24/08/2022,07:56:24,TEMP=14.8,BA=5.64,STAT.A,ExtBa=12.10
24/08/2022,08:09:24,TEMP=14.6,BA=5.64,STAT.D,ExtBa=12.10
24/08/2022,08:11:23,TEMP=15.1,BA=5.64,STAT.A,ExtBa=12.10
24/08/2022,08:24:24,TEMP=14.8,BA=5.64,STAT.D,ExtBa=12.10
24/08/2022,08:28:59,TEMP=15.0,BA=5.64,STAT.A,ExtBa=12.10
24/08/2022,08:42:24,TEMP=15.4,BA=5.64,STAT.D,ExtBa=12.10
24/08/2022,08:52:05,TEMP=15.3,BA=5.64,STAT.B,ExtBa=12.10
24/08/2022,09:03:24,TEMP=15.2,BA=5.64,STAT.D,ExtBa=12.10
24/08/2022,09:06:13,TEMP=15.3,BA=5.64,STAT.D,ExtBa=12.10
24/08/2022,09:18:24,TEMP=15.1,BA=5.64,STAT.D,ExtBa=12.10
24/08/2022,09:21:15,TEMP=15.4,BA=5.64,STAT.F,ExtBa=12.10
24/08/2022,09:33:24,TEMP=16.0,BA=5.64,STAT.D,ExtBa=12.10
24/08/2022,09:36:13,TEMP=16.4,BA=5.64,STAT.D,ExtBa=12.10
24/08/2022,09:48:24,TEMP=16.6,BA=5.64,STAT.D,ExtBa=12.10
24/08/2022,09:51:13,TEMP=16.9,BA=5.64,STAT.D,ExtBa=12.10
24/08/2022,10:03:24,TEMP=17.6,BA=5.64,STAT.D,ExtBa=12.10
24/08/2022,10:06:13,TEMP=18.0,BA=5.64,STAT.D,ExtBa=12.10
24/08/2022,10:18:24,TEMP=17.6,BA=5.64,STAT.D,ExtBa=12.10
24/08/2022,10:21:15,TEMP=17.7,BA=5.64,STAT.F,ExtBa=12.10
24/08/2022,10:36:14,TEMP=17.6,BA=5.60,STAT.D,ExtBa=12.10
24/08/2022,10:48:25,TEMP=17.8,BA=5.64,STAT.D,ExtBa=12.10
24/08/2022,10:51:14,TEMP=18.2,BA=5.60,STAT.D,ExtBa=12.00
24/08/2022,11:03:25,TEMP=18.7,BA=5.64,STAT.D,ExtBa=12.10
24/08/2022,11:06:14,TEMP=19.0,BA=5.64,STAT.D,ExtBa=12.00
24/08/2022,11:09:25,TEMP=19.1,BA=5.64,STAT.D,ExtBa=12.00
24/08/2022,11:21:15,TEMP=19.3,BA=5.64,STAT.F,ExtBa=12.10
24/08/2022,11:33:25,TEMP=19.2,BA=5.64,STAT.D,ExtBa=12.10
24/08/2022,11:36:14,TEMP=19.4,BA=5.64,STAT.D,ExtBa=12.00
24/08/2022,11:48:25,TEMP=19.2,BA=5.64,STAT.D,ExtBa=12.10
24/08/2022,11:51:14,TEMP=19.4,BA=5.64,STAT.D,ExtBa=12.00
24/08/2022,11:54:25,TEMP=19.6,BA=5.64,STAT.D,ExtBa=12.00
24/08/2022,12:06:14,TEMP=19.5,BA=5.64,STAT.D,ExtBa=12.10
24/08/2022,12:18:25,TEMP=19.4,BA=5.56,STAT.D,ExtBa=12.10
24/08/2022,12:21:15,TEMP=19.6,BA=5.64,STAT.F,ExtBa=12.10
24/08/2022,12:36:14,TEMP=19.2,BA=5.56,STAT.D,ExtBa=12.00
24/08/2022,12:39:25,TEMP=19.1,BA=5.56,STAT.D,ExtBa=12.00
24/08/2022,12:42:25,TEMP=19.1,BA=5.56,STAT.D,ExtBa=12.00
24/08/2022,12:45:25,TEMP=19.1,BA=5.56,STAT.D,ExtBa=12.00
24/08/2022,12:48:25,TEMP=19.4,BA=5.56,STAT.D,ExtBa=12.00
24/08/2022,12:51:14,TEMP=19.5,BA=5.56,STAT.D,ExtBa=12.00
24/08/2022,12:54:25,TEMP=19.6,BA=5.56,STAT.D,ExtBa=12.00
24/08/2022,12:57:25,TEMP=19.9,BA=5.56,STAT.D,ExtBa=12.00
24/08/2022,13:00:25,TEMP=20.1,BA=5.64,STAT.D,ExtBa=12.00
24/08/2022,13:03:25,TEMP=20.4,BA=5.64,STAT.D,ExtBa=12.00
24/08/2022,13:06:14,TEMP=20.7,BA=5.64,STAT.D,ExtBa=12.00
24/08/2022,13:09:25,TEMP=20.9,BA=5.64,STAT.D,ExtBa=12.00
24/08/2022,13:12:25,TEMP=21.1,BA=5.56,STAT.D,ExtBa=12.00
24/08/2022,13:15:25,TEMP=21.2,BA=5.56,STAT.D,ExtBa=12.00
24/08/2022,13:18:25,TEMP=21.2,BA=5.56,STAT.D,ExtBa=12.00
24/08/2022,13:21:15,TEMP=21.2,BA=5.60,STAT.F,ExtBa=12.00
24/08/2022,13:36:14,TEMP=20.0,BA=5.56,STAT.D,ExtBa=12.00
24/08/2022,13:48:24,TEMP=19.7,BA=5.64,STAT.D,ExtBa=12.00
24/08/2022,13:51:13,TEMP=20.1,BA=5.56,STAT.D,ExtBa=12.00
24/08/2022,13:54:24,TEMP=20.3,BA=5.56,STAT.D,ExtBa=12.00
24/08/2022,13:57:24,TEMP=20.3,BA=5.56,STAT.D,ExtBa=12.00
24/08/2022,14:00:24,TEMP=20.2,BA=5.64,STAT.D,ExtBa=12.00
24/08/2022,14:03:25,TEMP=20.2,BA=5.64,STAT.D,ExtBa=12.00
24/08/2022,14:06:13,TEMP=20.2,BA=5.64,STAT.D,ExtBa=12.00
24/08/2022,14:18:24,TEMP=19.9,BA=5.64,STAT.D,ExtBa=12.00
24/08/2022,14:21:15,TEMP=20.3,BA=5.60,STAT.F,ExtBa=12.00
24/08/2022,14:45:08,TEMP=21.4,BA=5.56,STAT.D,ExtBa=12.00
24/08/2022,14:51:13,TEMP=20.7,BA=5.64,STAT.D,ExtBa=12.00
24/08/2022,14:54:24,TEMP=20.8,BA=5.64,STAT.D,ExtBa=12.00
24/08/2022,15:06:13,TEMP=20.5,BA=5.64,STAT.D,ExtBa=12.00
24/08/2022,15:09:24,TEMP=20.6,BA=5.64,STAT.D,ExtBa=12.00
24/08/2022,15:12:24,TEMP=20.6,BA=5.52,STAT.D,ExtBa=12.00
24/08/2022,15:15:24,TEMP=20.4,BA=5.52,STAT.D,ExtBa=12.00
24/08/2022,15:21:15,TEMP=19.8,BA=5.64,STAT.F,ExtBa=12.00
24/08/2022,15:45:54,TEMP=19.8,BA=5.56,STAT.D,ExtBa=12.00
24/08/2022,15:50:25,TEMP=19.3,BA=5.64,STAT.B,ExtBa=12.00
24/08/2022,16:00:24,TEMP=19.1,BA=5.64,STAT.D,ExtBa=12.00
24/08/2022,16:03:24,TEMP=19.0,BA=5.64,STAT.D,ExtBa=12.00
24/08/2022,16:06:24,TEMP=18.9,BA=5.64,STAT.D,ExtBa=12.00
24/08/2022,16:09:24,TEMP=18.7,BA=5.64,STAT.D,ExtBa=12.00
24/08/2022,16:12:24,TEMP=18.7,BA=5.56,STAT.D,ExtBa=12.00
24/08/2022,16:14:25,TEMP=18.9,BA=5.56,STAT.A,ExtBa=12.00
24/08/2022,16:18:24,TEMP=18.5,BA=5.56,STAT.D,ExtBa=12.00
24/08/2022,16:21:24,TEMP=18.5,BA=5.60,STAT.D,ExtBa=12.00
24/08/2022,16:24:24,TEMP=18.4,BA=5.60,STAT.D,ExtBa=12.00
24/08/2022,16:27:24,TEMP=18.4,BA=5.60,STAT.D,ExtBa=12.00
24/08/2022,16:30:24,TEMP=18.3,BA=5.64,STAT.D,ExtBa=12.00
24/08/2022,16:32:25,TEMP=18.6,BA=5.64,STAT.A,ExtBa=12.00
24/08/2022,16:36:24,TEMP=18.2,BA=5.64,STAT.D,ExtBa=12.00
24/08/2022,16:39:24,TEMP=18.2,BA=5.64,STAT.D,ExtBa=12.00
24/08/2022,16:42:24,TEMP=18.3,BA=5.56,STAT.D,ExtBa=12.00
24/08/2022,16:45:24,TEMP=18.4,BA=5.56,STAT.D,ExtBa=12.00
24/08/2022,16:47:24,TEMP=18.7,BA=5.56,STAT.A,ExtBa=12.00
24/08/2022,16:51:24,TEMP=18.4,BA=5.64,STAT.D,ExtBa=12.00
24/08/2022,16:54:24,TEMP=18.4,BA=5.64,STAT.D,ExtBa=12.00
24/08/2022,16:57:24,TEMP=18.4,BA=5.64,STAT.D,ExtBa=12.00
24/08/2022,16:59:24,TEMP=18.7,BA=5.64,STAT.A,ExtBa=12.00
24/08/2022,17:05:57,TEMP=18.3,BA=5.56,STAT.D,ExtBa=12.00
24/08/2022,17:09:23,TEMP=18.4,BA=5.56,STAT.C,ExtBa=12.00
24/08/2022,17:19:46,TEMP=18.7,BA=5.56,STAT.A,ExtBa=12.00
24/08/2022,17:26:23,TEMP=18.1,BA=5.56,STAT.A,ExtBa=12.00
24/08/2022,17:30:23,TEMP=18.1,BA=5.64,STAT.D,ExtBa=12.00
24/08/2022,17:33:23,TEMP=18.2,BA=5.64,STAT.A,ExtBa=12.00
24/08/2022,17:39:35,TEMP=18.1,BA=5.64,STAT.A,ExtBa=12.00
24/08/2022,17:42:23,TEMP=18.2,BA=5.56,STAT.D,ExtBa=12.00
24/08/2022,17:45:09,TEMP=18.3,BA=5.56,STAT.B,ExtBa=12.00
24/08/2022,17:54:23,TEMP=18.5,BA=5.52,STAT.D,ExtBa=12.00
24/08/2022,17:56:51,TEMP=18.6,BA=5.52,STAT.A,ExtBa=12.00
24/08/2022,18:06:09,TEMP=18.0,BA=5.64,STAT.A,ExtBa=12.00
24/08/2022,18:13:44,TEMP=17.9,BA=5.64,STAT.A,ExtBa=12.00
24/08/2022,18:20:04,TEMP=17.7,BA=5.60,STAT.A,ExtBa=12.00
24/08/2022,18:25:25,TEMP=17.5,BA=5.60,STAT.A,ExtBa=12.00
24/08/2022,18:30:00,TEMP=17.4,BA=5.60,STAT.A,ExtBa=12.00